Location: Balaclava NSW 2575, Australia
(34.4510°S, 150.4953°E)
Time: 02:16:01
(UTC+10:00)

A-11 Canister half - Pass Details

Date: 15 June 2021
Orbit: 1513 x 1687 km, 47.2° (Epoch: 24 July)

Event Time Altitude Azimuth Distance (km) Brightness Sun altitude
Rises 17:51:24 0° 295° (WNW) 4,679 13.7 -11.6°
Reaches altitude 10° 17:54:26 10° 292° (WNW) 3,717 12.6 -12.1°
Maximum altitude 18:03:49 67° 210° (SSW) 1,700 9.3 -14.0°
Enters shadow 18:11:53 17° 130° (SE) 3,343 10.2 -15.5°
